Location: Epalinges
(46.5518°N, 6.6683°E)
Time: 20:04:55
(UTC+00:00)

MSX - Pass Details

Date: 20 June 2021
Orbit: 894 x 907 km, 98.8° (Epoch: 31 July)

Event Time Altitude Azimuth Distance (km) Brightness Sun altitude
Rises 02:11:03 0° 18° (NNE) 3,540 8.5 -11.6°
Reaches altitude 10° 02:13:32 10° 22° (NNE) 2,592 7.6 -11.4°
Maximum altitude 02:19:12 55° 100° (E) 1,074 4.4 -10.8°
Drops below altitude 10° 02:24:49 10° 178° (S) 2,566 5.8 -10.2°
Enters shadow 02:26:02 - 181° (S) 3,030 6.1 -10.0°
